Location: Unspecified
(52.4292°N, 19.3359°E)
Time: 04:59:59
(UTC+02:00)

A-11 Canister half - Pass Details

Date: 22 May 2024
Orbit: 1524 x 1683 km, 47.3° (Epoch: 17 April)

Event Time Altitude Azimuth Distance (km) Brightness Sun altitude
Rises 01:00:48 0° 263° (W) 4,727 11.4 -17.0°
Reaches altitude 10° 01:03:51 10° 261° (W) 3,762 10.9 -16.9°
Maximum altitude 01:13:16 66° 182° (S) 1,729 9.0 -16.8°
Drops below altitude 10° 01:23:02 10° 103° (ESE) 3,887 11.1 -16.5°
Sets 01:26:14 0° 101° (E) 4,892 11.7 -16.4°
